Weather History for KT82 - March, 2014

Change the Weather History Date:

Monday, March 31, 2014

  Actual Average (KSAT) Record (KSAT)
Temperature  
Mean Temperature 69 °F 66 °F  
Max Temperature 80 °F 77 °F 93 °F (1946)
Min Temperature 58 °F 54 °F 31 °F (1987)
Degree Days  
Heating Degree Days 0 3  
Month to date heating degree days 153  
Since 1 July heating degree days 1455  
Cooling Degree Days 4 3  
Month to date cooling degree days 65  
Year to date cooling degree days 91  
Growing Degree Days 19 (Base 50)    
Moisture  
Dew Point 55 °F    
Average Humidity 68    
Maximum Humidity 84    
Minimum Humidity 35    
Precipitation  
Precipitation 0.00 in 0.06 in 1.08 in (1945)
Month to date precipitation 2.31  
Year to date precipitation 5.86  
Snow  
Snow 0.00 in - - ()
Month to date snowfall  
Since 1 July snowfall  
Snow Depth -    
Sea Level Pressure  
Sea Level Pressure 29.93 in    
Wind  
Wind Speed 11 mph (South)    
Max Wind Speed 16 mph    
Max Gust Speed 29 mph    
Visibility 10 miles    
Events      
T = Trace of Precipitation, MM = Missing Value Source: NWS Daily Summary

Daily Weather History Graph

Daily Weather History Graph

Search for Another Location

Airport or City:

Trip Planner

Search our weather history database for the weather conditions in past years. The results will help you decide how hot, cold, wet, or windy it might be!

Date:

Astronomy

Mar. 31, 2014 Rise Set
Actual Time 7:26 AM CDT 7:53 PM CDT
Civil Twilight 7:01 AM CDT 8:18 PM CDT
Nautical Twilight 6:33 AM CDT 8:46 PM CDT
Astronomical Twilight 6:05 AM CDT 9:15 PM CDT
Moon 7:54 AM CDT (3/31) 9:07 PM CDT (3/31)
Length of Visible Light 13h 16m
Length of Day
12h 27m
New Moon, 1% of the Moon is Illuminated
Mar 31
New Moon
Apr 7
First Quarter
Apr 15
Full
Apr 22
Last Quarter
Apr 29
New

Hourly Weather History & Observations

Time (CDT) Temp. Dew Point Humidity Pressure Visibility Wind Dir Wind Speed Gust Speed Precip Events Conditions
12:15 AM 58.8 °F 50.9 °F 75% 30.01 in 10.0 mi South 11.5 mph 17.3 mph N/A   Clear
12:35 AM 58.5 °F 52.0 °F 79% 30.01 in 10.0 mi South 16.1 mph - N/A   Scattered Clouds
12:55 AM 58.3 °F 52.7 °F 82% 30.00 in 10.0 mi South 10.4 mph 17.3 mph N/A   Mostly Cloudy
1:15 AM 58.6 °F 52.9 °F 81% 30.00 in 10.0 mi SSE 10.4 mph 16.1 mph N/A   Overcast
1:35 AM 59.0 °F 53.2 °F 81% 29.99 in 10.0 mi South 11.5 mph 19.6 mph N/A   Overcast
1:55 AM 59.4 °F 53.6 °F 81% 29.98 in 10.0 mi South 13.8 mph 20.7 mph N/A   Overcast
2:15 AM 59.4 °F 53.6 °F 81% 29.97 in 10.0 mi South 16.1 mph 24.2 mph N/A   Overcast
2:35 AM 59.2 °F 53.6 °F 82% 29.97 in 10.0 mi South 16.1 mph 19.6 mph N/A   Overcast
2:55 AM 59.0 °F 53.2 °F 81% 29.96 in 10.0 mi South 15.0 mph 28.8 mph N/A   Overcast
3:15 AM 58.5 °F 52.7 °F 81% 29.96 in 10.0 mi South 12.7 mph 18.4 mph N/A   Overcast
3:35 AM 58.3 °F 52.5 °F 81% 29.95 in 10.0 mi South 9.2 mph 17.3 mph N/A   Mostly Cloudy
3:55 AM 58.1 °F 52.7 °F 82% 29.94 in 10.0 mi South 11.5 mph 16.1 mph N/A   Mostly Cloudy
4:15 AM 58.5 °F 52.7 °F 81% 29.94 in 10.0 mi South 11.5 mph 16.1 mph N/A   Overcast
4:35 AM 58.1 °F 52.5 °F 82% 29.93 in 10.0 mi SSW 11.5 mph - N/A   Mostly Cloudy
4:55 AM 58.5 °F 52.7 °F 81% 29.93 in 10.0 mi South 15.0 mph 19.6 mph N/A   Mostly Cloudy
5:15 AM 58.6 °F 52.9 °F 81% 29.93 in 10.0 mi SSW 12.7 mph 17.3 mph N/A   Overcast
5:35 AM 58.5 °F 53.1 °F 82% 29.93 in 10.0 mi SSW 15.0 mph 19.6 mph N/A   Mostly Cloudy
5:55 AM 58.8 °F 53.4 °F 82% 29.92 in 10.0 mi South 11.5 mph - N/A   Mostly Cloudy
6:15 AM 58.5 °F 53.6 °F 84% 29.92 in 10.0 mi South 16.1 mph 23.0 mph N/A   Mostly Cloudy
6:35 AM 58.5 °F 53.2 °F 83% 29.92 in 10.0 mi South 12.7 mph 18.4 mph N/A   Scattered Clouds
6:55 AM 58.5 °F 53.6 °F 84% 29.92 in 10.0 mi South 13.8 mph - N/A   Mostly Cloudy
7:15 AM 58.3 °F 53.6 °F 84% 29.91 in 10.0 mi South 12.7 mph 19.6 mph N/A   Mostly Cloudy
7:35 AM 58.3 °F 53.6 °F 84% 29.91 in 10.0 mi South 10.4 mph - N/A   Mostly Cloudy
7:55 AM 59.0 °F 54.0 °F 83% 29.92 in 10.0 mi South 13.8 mph - N/A   Overcast
8:15 AM 59.4 °F 54.0 °F 82% 29.92 in 10.0 mi South 15.0 mph 20.7 mph N/A   Overcast
8:35 AM 60.3 °F 54.7 °F 82% 29.93 in 10.0 mi SSW 13.8 mph 17.3 mph N/A   Mostly Cloudy
8:55 AM 61.2 °F 54.3 °F 78% 29.94 in 10.0 mi SSW 12.7 mph 21.9 mph N/A   Mostly Cloudy
9:15 AM 61.3 °F 54.7 °F 79% 29.96 in 10.0 mi SSW 16.1 mph - N/A   Overcast
9:35 AM 61.0 °F 54.7 °F 80% 29.97 in 10.0 mi SSW 12.7 mph 25.3 mph N/A   Overcast
9:55 AM 61.2 °F 54.9 °F 80% 29.97 in 10.0 mi SSW 12.7 mph - N/A   Overcast
10:35 AM 61.7 °F 55.8 °F 81% 29.97 in 10.0 mi SSW 11.5 mph - N/A   Overcast
10:55 AM 62.2 °F 56.3 °F 81% 29.98 in 10.0 mi SSW 12.7 mph 17.3 mph N/A   Overcast
11:15 AM 62.6 °F 56.3 °F 80% 29.97 in 10.0 mi SSW 12.7 mph - N/A   Overcast
11:35 AM 63.5 °F 56.5 °F 78% 29.97 in 10.0 mi SSW 12.7 mph - N/A   Overcast
11:55 AM 64.8 °F 57.0 °F 76% 29.97 in 10.0 mi SW 13.8 mph 20.7 mph N/A   Overcast
12:15 PM 65.8 °F 57.2 °F 74% 29.97 in 10.0 mi SW 15.0 mph 20.7 mph N/A   Overcast
12:35 PM 66.6 °F 57.2 °F 72% 29.97 in 10.0 mi SSW 15.0 mph 23.0 mph N/A   Overcast
12:55 PM 67.6 °F 57.4 °F 70% 29.97 in 10.0 mi SSW 15.0 mph - N/A   Overcast
1:15 PM 69.6 °F 57.9 °F 66% 29.96 in 10.0 mi SSW 12.7 mph - N/A   Overcast
1:35 PM 69.8 °F 57.9 °F 66% 29.96 in 10.0 mi SW 11.5 mph - N/A   Overcast
1:55 PM 71.1 °F 58.1 °F 63% 29.95 in 10.0 mi SSW 12.7 mph 19.6 mph N/A   Mostly Cloudy
2:15 PM 72.3 °F 57.9 °F 60% 29.94 in 10.0 mi SSW 10.4 mph 17.3 mph N/A   Scattered Clouds
2:35 PM 73.6 °F 57.6 °F 57% 29.94 in 10.0 mi SSW 8.1 mph 18.4 mph N/A   Scattered Clouds
2:55 PM 74.8 °F 57.6 °F 55% 29.93 in 10.0 mi SSW 9.2 mph - N/A   Clear
3:15 PM 74.8 °F 57.0 °F 54% 29.92 in 10.0 mi SSW 9.2 mph - N/A   Clear
3:35 PM 76.6 °F 55.9 °F 49% 29.91 in 10.0 mi SSW 10.4 mph - N/A   Clear
3:55 PM 76.3 °F 56.1 °F 50% 29.91 in 10.0 mi WSW 3.5 mph - N/A   Clear
4:15 PM 78.3 °F 54.5 °F 44% 29.90 in 10.0 mi South 5.8 mph - N/A   Clear
4:35 PM 77.9 °F 54.7 °F 45% 29.89 in 10.0 mi SSW 6.9 mph - N/A   Clear
4:55 PM 78.4 °F 53.6 °F 42% 29.89 in 10.0 mi South 3.5 mph - N/A   Clear
5:15 PM 79.3 °F 52.2 °F 39% 29.88 in 10.0 mi Calm Calm - N/A   Clear
5:35 PM 79.2 °F 52.5 °F 39% 29.87 in 10.0 mi SSE 5.8 mph - N/A   Clear
5:55 PM 80.2 °F 52.0 °F 37% 29.87 in 10.0 mi SW 4.6 mph - N/A   Clear
6:15 PM 79.9 °F 50.9 °F 36% 29.87 in 10.0 mi SE 4.6 mph - N/A   Clear
6:35 PM 79.9 °F 49.6 °F 35% 29.87 in 10.0 mi South 5.8 mph - N/A   Clear
6:55 PM 79.7 °F 50.2 °F 36% 29.87 in 10.0 mi SSE 4.6 mph - N/A   Clear
7:15 PM 79.0 °F 51.4 °F 38% 29.88 in 10.0 mi South 5.8 mph - N/A   Clear
7:35 PM 77.4 °F 53.1 °F 43% 29.88 in 10.0 mi South 4.6 mph - N/A   Clear
7:55 PM 75.0 °F 53.2 °F 47% 29.88 in 10.0 mi Calm Calm - N/A   Clear
8:15 PM 75.2 °F 54.3 °F 48% 29.89 in 10.0 mi SSE 4.6 mph - N/A   Clear
8:35 PM 73.8 °F 55.6 °F 53% 29.90 in 10.0 mi SSE 5.8 mph - N/A   Clear
8:55 PM 73.4 °F 55.8 °F 54% 29.90 in 10.0 mi SSE 5.8 mph - N/A   Clear
9:15 PM 72.5 °F 55.8 °F 56% 29.91 in 10.0 mi SE 3.5 mph - N/A   Clear
9:35 PM 71.8 °F 56.3 °F 58% 29.91 in 10.0 mi SSE 4.6 mph - N/A   Clear
9:55 PM 71.1 °F 56.3 °F 60% 29.92 in 10.0 mi SSE 3.5 mph - N/A   Clear
10:15 PM 70.7 °F 56.3 °F 60% 29.93 in 10.0 mi Calm Calm - N/A   Clear
10:35 PM 70.0 °F 57.2 °F 64% 29.94 in 10.0 mi SSE 8.1 mph - N/A   Clear
10:55 PM 69.1 °F 59.0 °F 70% 29.94 in 10.0 mi SSE 6.9 mph - N/A   Clear
11:15 PM 68.2 °F 59.4 °F 73% 29.94 in 10.0 mi SE 5.8 mph - N/A   Clear
11:35 PM 67.3 °F 59.5 °F 76% 29.95 in 10.0 mi SSE 5.8 mph - N/A   Clear
11:55 PM 66.4 °F 59.7 °F 79% 29.95 in 10.0 mi SSE 8.1 mph - N/A   Clear